| time (UTC) | temp C | wind direction | speed KPH | gust KPH | rain 1hr cm | rain 24hr cm | rain mn cm | humidity % | barometer mb |
| 20260906092703 | 27 | 287 | 6.4 | 12.9 | 0.00 | 0.03 | 0.03 | 53 | 1024.7 |
| 20260906091804 | 26 | 305 | 6.4 | 12.9 | 0.00 | 0.03 | 0.03 | 57 | 1024.8 |
| 20260906090903 | 27 | 325 | 3.2 | 12.9 | 0.00 | 0.03 | 0.03 | 56 | 1024.8 |
| 20260906090003 | 26 | 304 | 4.8 | 11.3 | 0.00 | 0.03 | 0.03 | 58 | 1024.8 |
| 20260906085424 | 26 | 321 | 4.8 | 11.3 | 0.00 | 0.03 | 0.03 | 60 | 1024.9 |
| 20260906084503 | 26 | 314 | 6.4 | 11.3 | 0.00 | 0.03 | 0.03 | 59 | 1024.9 |
| 20260906083604 | 26 | 334 | 3.2 | 11.3 | 0.00 | 0.03 | 0.03 | 58 | 1024.8 |
| 20260906082703 | 26 | 318 | 4.8 | 11.3 | 0.00 | 0.03 | 0.03 | 58 | 1024.8 |
| 20260906081804 | 27 | 331 | 3.2 | 9.7 | 0.00 | 0.03 | 0.03 | 56 | 1024.7 |
| 20260906080903 | 26 | 324 | 4.8 | 14.5 | 0.00 | 0.03 | 0.03 | 57 | 1024.5 |
| 20260906080003 | 26 | 307 | 3.2 | 9.7 | 0.00 | 0.03 | 0.03 | 56 | 1024.6 |
| 20260906075403 | 26 | 337 | 3.2 | 8.0 | 0.00 | 0.03 | 0.03 | 57 | 1024.4 |
| 20260906074503 | 25 | 324 | 4.8 | 11.3 | 0.00 | 0.03 | 0.03 | 61 | 1024.4 |
| 20260906073603 | 25 | 308 | 4.8 | 12.9 | 0.00 | 0.03 | 0.03 | 61 | 1024.2 |
| 20260906072703 | 26 | 327 | 4.8 | 11.3 | 0.00 | 0.03 | 0.03 | 60 | 1024.2 |
| 20260906071803 | 26 | 337 | 3.2 | 6.4 | 0.00 | 0.03 | 0.03 | 58 | 1024.2 |
| 20260906070903 | 26 | 349 | 1.6 | 6.4 | 0.00 | 0.03 | 0.03 | 59 | 1024.1 |
| 20260906070003 | 26 | 360 | 1.6 | 6.4 | 0.00 | 0.03 | 0.03 | 62 | 1024.1 |
| 20260906065404 | 26 | 331 | 1.6 | 6.4 | 0.00 | 0.03 | 0.03 | 64 | 1024.1 |
| 20260906064524 | 25 | 344 | 1.6 | 6.4 | 0.00 | 0.03 | 0.03 | 70 | 1024.1 |
| 20260906063603 | 26 | 354 | 1.6 | 3.2 | 0.00 | 0.03 | 0.03 | 72 | 1024.1 |
| 20260906062703 | 25 | 357 | 1.6 | 4.8 | 0.00 | 0.03 | 0.03 | 75 | 1024.1 |
| 20260906061803 | 24 | 352 | 1.6 | 8.0 | 0.00 | 0.03 | 0.03 | 79 | 1023.7 |
| 20260906060904 | 24 | 355 | 1.6 | 4.8 | 0.00 | 0.03 | 0.03 | 80 | 1023.8 |
| 20260906060003 | 23 | 357 | 1.6 | 4.8 | 0.00 | 0.03 | 0.03 | 81 | 1023.7 |
| 20260906055403 | 23 | 6 | 1.6 | 3.2 | 0.00 | 0.03 | 0.03 | 80 | 1023.6 |
| 20260906054503 | 23 | 7 | 1.6 | 3.2 | 0.00 | 0.03 | 0.03 | 80 | 1023.7 |
| 20260906053626 | 23 | 12 | 1.6 | 4.8 | 0.00 | 0.03 | 0.03 | 82 | 1023.4 |
| 20260906052705 | 22 | 22 | 1.6 | 3.2 | 0.00 | 0.03 | 0.03 | 85 | 1023.5 |
| 20260906051825 | 21 | 29 | 3.2 | 4.8 | 0.00 | 0.03 | 0.03 | 85 | 1023.5 |
| 20260906050904 | 22 | 24 | 3.2 | 6.4 | 0.00 | 0.03 | 0.03 | 84 | 1023.5 |
| 20260906050026 | 22 | 23 | 3.2 | 4.8 | 0.00 | 0.03 | 0.03 | 85 | 1023.4 |
| 20260906045405 | 22 | 23 | 3.2 | 6.4 | 0.00 | 0.03 | 0.03 | 86 | 1023.4 |
| 20260906044525 | 21 | 26 | 3.2 | 6.4 | 0.00 | 0.03 | 0.03 | 86 | 1023.4 |
| 20260906043604 | 21 | 32 | 3.2 | 4.8 | 0.00 | 0.03 | 0.03 | 90 | 1023.2 |
| 20260906042705 | 20 | 52 | 3.2 | 4.8 | 0.00 | 0.03 | 0.03 | 90 | 1023.3 |
| 20260906041804 | 21 | 36 | 1.6 | 3.2 | 0.00 | 0.03 | 0.03 | 90 | 1023.2 |
| 20260906040904 | 21 | 36 | 1.6 | 4.8 | 0.00 | 0.03 | 0.03 | 89 | 1023.3 |
| 20260906040005 | 21 | 27 | 1.6 | 4.8 | 0.00 | 0.03 | 0.03 | 89 | 1023.2 |
| 20260906035405 | 21 | 25 | 3.2 | 4.8 | 0.00 | 0.03 | 0.03 | 88 | 1023.1 |
| 20260906034504 | 21 | 31 | 1.6 | 4.8 | 0.00 | 0.03 | 0.03 | 88 | 1023.0 |
| 20260906033605 | 22 | 22 | 3.2 | 4.8 | 0.00 | 0.03 | 0.03 | 85 | 1023.1 |
| 20260906032704 | 22 | 20 | 3.2 | 4.8 | 0.00 | 0.03 | 0.03 | 86 | 1023.1 |
| 20260906031804 | 22 | 25 | 3.2 | 4.8 | 0.00 | 0.03 | 0.03 | 87 | 1022.9 |
| 20260906030904 | 21 | 38 | 3.2 | 4.8 | 0.00 | 0.03 | 0.03 | 89 | 1023.1 |
| 20260906030005 | 21 | 29 | 3.2 | 6.4 | 0.00 | 0.03 | 0.03 | 89 | 1023.2 |
| 20260906025404 | 21 | 33 | 3.2 | 6.4 | 0.00 | 0.03 | 0.03 | 90 | 1023.3 |
| 20260906024505 | 21 | 22 | 3.2 | 4.8 | 0.00 | 0.03 | 0.03 | 90 | 1023.4 |
| 20260906023605 | 21 | 29 | 1.6 | 4.8 | 0.00 | 0.03 | 0.03 | 91 | 1023.3 |
| 20260906022704 | 21 | 34 | 1.6 | 4.8 | 0.00 | 0.03 | 0.03 | 93 | 1023.2 |
| 20260906021804 | 21 | 26 | 1.6 | 4.8 | 0.00 | 0.03 | 0.03 | 93 | 1023.3 |
| 20260906020905 | 21 | 36 | 1.6 | 6.4 | 0.00 | 0.03 | 0.03 | 93 | 1023.1 |
| 20260906020004 | 21 | 22 | 3.2 | 6.4 | 0.00 | 0.03 | 0.03 | 94 | 1023.3 |
| 20260906015404 | 21 | 20 | 3.2 | 6.4 | 0.00 | 0.03 | 0.03 | 94 | 1023.3 |
| 20260906014505 | 21 | 27 | 3.2 | 6.4 | 0.00 | 0.03 | 0.03 | 93 | 1023.3 |
| 20260906013605 | 21 | 12 | 3.2 | 4.8 | 0.00 | 0.03 | 0.03 | 93 | 1023.4 |
| 20260906012704 | 21 | 34 | 1.6 | 4.8 | 0.00 | 0.03 | 0.03 | 93 | 1023.3 |
| 20260906011825 | 21 | 15 | 3.2 | 6.4 | 0.00 | 0.03 | 0.03 | 92 | 1023.4 |
| 20260906010904 | 21 | 9 | 3.2 | 6.4 | 0.00 | 0.03 | 0.03 | 92 | 1023.5 |
| 20260906010004 | 21 | 11 | 1.6 | 6.4 | 0.00 | 0.03 | 0.03 | 92 | 1023.3 |
| 20260906005404 | 21 | 10 | 1.6 | 4.8 | 0.00 | 0.03 | 0.03 | 92 | 1023.3 |
| 20260906004526 | 21 | 25 | 1.6 | 4.8 | 0.00 | 0.03 | 0.03 | 91 | 1023.4 |
| 20260906003604 | 21 | 23 | 1.6 | 3.2 | 0.00 | 0.03 | 0.03 | 91 | 1023.2 |
| 20260906002704 | 22 | 23 | 3.2 | 3.2 | 0.00 | 0.03 | 0.03 | 91 | 1023.4 |
| 20260906001804 | 22 | 24 | 1.6 | 3.2 | 0.00 | 0.03 | 0.03 | 92 | 1023.4 |
| 20260906000905 | 21 | 26 | 1.6 | 3.2 | 0.00 | 0.03 | 0.03 | 91 | 1023.6 |
| 20260906000025 | 22 | 27 | 1.6 | 4.8 | 0.00 | 0.03 | 0.03 | 91 | 1023.6 |
| 20260905235405 | 22 | 23 | 3.2 | 4.8 | 0.00 | 0.03 | 0.03 | 90 | 1023.7 |
| 20260905234504 | 22 | 30 | 3.2 | 4.8 | 0.00 | 0.03 | 0.03 | 90 | 1023.7 |
| 20260905233604 | 21 | 32 | 1.6 | 3.2 | 0.00 | 0.00 | 0.00 | 88 | 1023.7 |
| 20260905232725 | 21 | 42 | 1.6 | 3.2 | 0.00 | 0.00 | 0.00 | 87 | 1023.7 |
| 20260905231804 | 21 | 36 | 1.6 | 3.2 | 0.00 | 0.00 | 0.00 | 85 | 1023.8 |
| 20260905230904 | 21 | 40 | 1.6 | 3.2 | 0.00 | 0.00 | 0.00 | 84 | 1023.6 |
| 20260905230005 | 21 | 37 | 1.6 | 1.6 | 0.00 | 0.00 | 0.00 | 84 | 1023.7 |
| 20260905225405 | 21 | 36 | 1.6 | 1.6 | 0.00 | 0.00 | 0.00 | 84 | 1023.6 |
| 20260905224504 | 21 | 29 | 1.6 | 3.2 | 0.00 | 0.00 | 0.00 | 82 | 1023.7 |
| 20260905223604 | 21 | 16 | 1.6 | 3.2 | 0.00 | 0.00 | 0.00 | 83 | 1024.1 |
| 20260905222704 | 21 | 351 | 3.2 | 6.4 | 0.00 | 0.00 | 0.00 | 83 | 1023.9 |
| 20260905221805 | 22 | 340 | 3.2 | 6.4 | 0.00 | 0.00 | 0.00 | 81 | 1023.6 |
| 20260905220904 | 21 | 359 | 1.6 | 6.4 | 0.00 | 0.00 | 0.00 | 80 | 1023.6 |
| 20260905220004 | 21 | 33 | 1.6 | 3.2 | 0.00 | 0.00 | 0.00 | 79 | 1023.7 |
| 20260905215425 | 21 | 34 | 1.6 | 3.2 | 0.00 | 0.00 | 0.00 | 78 | 1023.6 |
| 20260905214504 | 21 | 47 | 1.6 | 3.2 | 0.00 | 0.00 | 0.00 | 77 | 1023.7 |
| 20260905213604 | 21 | 31 | 1.6 | 3.2 | 0.00 | 0.00 | 0.00 | 76 | 1023.7 |
| 20260905212705 | 21 | 38 | 1.6 | 4.8 | 0.00 | 0.00 | 0.00 | 76 | 1023.5 |
| 20260905211804 | 22 | 33 | 3.2 | 3.2 | 0.00 | 0.00 | 0.00 | 75 | 1023.5 |
| 20260905210904 | 22 | 18 | 1.6 | 3.2 | 0.00 | 0.00 | 0.00 | 74 | 1023.4 |
| 20260905210004 | 22 | 19 | 1.6 | 3.2 | 0.00 | 0.00 | 0.00 | 73 | 1023.5 |
| 20260905205404 | 22 | 20 | 1.6 | 3.2 | 0.00 | 0.00 | 0.00 | 72 | 1023.5 |
| 20260905204504 | 22 | 13 | 1.6 | 3.2 | 0.00 | 0.00 | 0.00 | 73 | 1023.7 |
| 20260905203604 | 22 | 25 | 1.6 | 4.8 | 0.00 | 0.00 | 0.00 | 72 | 1023.6 |
| 20260905202705 | 22 | 11 | 1.6 | 3.2 | 0.00 | 0.00 | 0.00 | 73 | 1023.6 |
| 20260905201804 | 22 | 28 | 1.6 | 4.8 | 0.00 | 0.00 | 0.00 | 73 | 1023.5 |
| 20260905200905 | 22 | 12 | 3.2 | 6.4 | 0.00 | 0.00 | 0.00 | 74 | 1023.5 |
| 20260905200004 | 22 | 3 | 1.6 | 4.8 | 0.00 | 0.00 | 0.00 | 74 | 1023.6 |
| 20260905195404 | 22 | 2 | 1.6 | 4.8 | 0.00 | 0.00 | 0.00 | 74 | 1023.5 |
| 20260905194525 | 22 | 350 | 3.2 | 8.0 | 0.00 | 0.00 | 0.00 | 75 | 1023.6 |
| 20260905193604 | 22 | 2 | 1.6 | 4.8 | 0.00 | 0.00 | 0.00 | 75 | 1023.6 |
| 20260905192704 | 22 | 8 | 1.6 | 4.8 | 0.00 | 0.00 | 0.00 | 74 | 1023.6 |
| 20260905191825 | 22 | 1 | 1.6 | 4.8 | 0.00 | 0.00 | 0.00 | 74 | 1023.5 |
| 20260905190904 | 23 | 352 | 3.2 | 8.0 | 0.00 | 0.00 | 0.00 | 72 | 1023.6 |
| 20260905190025 | 23 | 335 | 6.4 | 12.9 | 0.00 | 0.00 | 0.00 | 71 | 1023.5 |
| 20260905185426 | 23 | 329 | 6.4 | 12.9 | 0.00 | 0.00 | 0.00 | 71 | 1023.5 |
| 20260905184504 | 23 | 333 | 3.2 | 9.7 | 0.00 | 0.00 | 0.00 | 72 | 1023.3 |
| 20260905183625 | 23 | 328 | 3.2 | 6.4 | 0.00 | 0.00 | 0.00 | 71 | 1023.0 |
| 20260905182704 | 23 | 313 | 1.6 | 4.8 | 0.00 | 0.00 | 0.00 | 71 | 1023.1 |
| 20260905181804 | 23 | 301 | 1.6 | 4.8 | 0.00 | 0.00 | 0.00 | 71 | 1023.2 |
| 20260905180904 | 23 | 271 | 1.6 | 3.2 | 0.00 | 0.00 | 0.00 | 69 | 1022.9 |
| 20260905180005 | 24 | 263 | 1.6 | 4.8 | 0.00 | 0.00 | 0.00 | 69 | 1023.0 |
| 20260905175405 | 24 | 264 | 3.2 | 6.4 | 0.00 | 0.00 | 0.00 | 68 | 1023.0 |
| 20260905174504 | 25 | 244 | 3.2 | 6.4 | 0.00 | 0.00 | 0.00 | 66 | 1022.8 |
| 20260905173604 | 25 | 263 | 4.8 | 9.7 | 0.00 | 0.00 | 0.00 | 64 | 1022.7 |
| 20260905172725 | 25 | 250 | 3.2 | 8.0 | 0.00 | 0.00 | 0.00 | 62 | 1022.7 |
| 20260905171804 | 26 | 256 | 4.8 | 8.0 | 0.00 | 0.00 | 0.00 | 61 | 1022.6 |
| 20260905170904 | 26 | 215 | 3.2 | 8.0 | 0.00 | 0.00 | 0.00 | 60 | 1022.7 |
| 20260905170025 | 27 | 251 | 4.8 | 9.7 | 0.00 | 0.00 | 0.00 | 58 | 1022.7 |
| 20260905165426 | 27 | 241 | 3.2 | 9.7 | 0.00 | 0.00 | 0.00 | 55 | 1022.8 |
| 20260905164504 | 28 | 220 | 3.2 | 9.7 | 0.00 | 0.00 | 0.00 | 47 | 1022.7 |
| 20260905163604 | 28 | 201 | 3.2 | 6.4 | 0.00 | 0.00 | 0.00 | 49 | 1022.6 |
| 20260905162704 | 28 | 196 | 3.2 | 11.3 | 0.00 | 0.00 | 0.00 | 51 | 1022.5 |
| 20260905161804 | 28 | 212 | 4.8 | 11.3 | 0.00 | 0.00 | 0.00 | 47 | 1022.7 |
| 20260905160904 | 28 | 213 | 3.2 | 9.7 | 0.00 | 0.00 | 0.00 | 45 | 1022.7 |
| 20260905160005 | 28 | 224 | 4.8 | 14.5 | 0.00 | 0.00 | 0.00 | 44 | 1022.7 |
| 20260905155404 | 28 | 254 | 4.8 | 14.5 | 0.00 | 0.00 | 0.00 | 43 | 1022.8 |
| 20260905154504 | 28 | 267 | 6.4 | 14.5 | 0.00 | 0.00 | 0.00 | 49 | 1022.9 |
| 20260905153604 | 28 | 292 | 6.4 | 16.1 | 0.00 | 0.00 | 0.00 | 52 | 1022.7 |
| 20260905152704 | 28 | 265 | 6.4 | 16.1 | 0.00 | 0.00 | 0.00 | 51 | 1022.8 |
| 20260905151805 | 29 | 261 | 8.0 | 16.1 | 0.00 | 0.00 | 0.00 | 48 | 1022.7 |
| 20260905150904 | 28 | 261 | 8.0 | 16.1 | 0.00 | 0.00 | 0.00 | 51 | 1022.8 |
| 20260905150025 | 28 | 263 | 8.0 | 16.1 | 0.00 | 0.00 | 0.00 | 48 | 1022.8 |
| 20260905145404 | 28 | 269 | 8.0 | 17.7 | 0.00 | 0.00 | 0.00 | 48 | 1023.0 |
| 20260905144504 | 28 | 263 | 9.7 | 20.9 | 0.00 | 0.00 | 0.00 | 51 | 1023.0 |
| 20260905143604 | 28 | 272 | 8.0 | 20.9 | 0.00 | 0.00 | 0.00 | 51 | 1022.9 |
| 20260905142703 | 28 | 252 | 8.0 | 19.3 | 0.00 | 0.00 | 0.00 | 48 | 1023.1 |
| 20260905141805 | 28 | 277 | 11.3 | 20.9 | 0.00 | 0.00 | 0.00 | 48 | 1023.1 |
| 20260905140904 | 28 | 261 | 9.7 | 22.5 | 0.00 | 0.00 | 0.00 | 49 | 1022.9 |
| 20260905140004 | 28 | 277 | 9.7 | 17.7 | 0.00 | 0.00 | 0.00 | 46 | 1023.1 |
| 20260905135404 | 29 | 267 | 8.0 | 17.7 | 0.00 | 0.00 | 0.00 | 44 | 1023.2 |
| 20260905134504 | 30 | 224 | 4.8 | 14.5 | 0.00 | 0.00 | 0.00 | 41 | 1023.1 |
| 20260905133604 | 29 | 249 | 6.4 | 17.7 | 0.00 | 0.00 | 0.00 | 41 | 1023.3 |
| 20260905132704 | 30 | 254 | 8.0 | 24.1 | 0.00 | 0.00 | 0.00 | 38 | 1023.2 |
| 20260905131804 | 30 | 213 | 6.4 | 14.5 | 0.00 | 0.00 | 0.00 | 37 | 1023.4 |
| 20260905130904 | 30 | 245 | 8.0 | 17.7 | 0.00 | 0.00 | 0.00 | 42 | 1023.1 |
| 20260905130004 | 30 | 241 | 6.4 | 17.7 | 0.00 | 0.00 | 0.00 | 42 | 1023.5 |
| 20260905125404 | 30 | 257 | 6.4 | 20.9 | 0.00 | 0.00 | 0.00 | 42 | 1023.4 |
| 20260905124504 | 30 | 241 | 6.4 | 14.5 | 0.00 | 0.00 | 0.00 | 39 | 1023.3 |
| 20260905123604 | 31 | 254 | 6.4 | 14.5 | 0.00 | 0.00 | 0.00 | 40 | 1023.2 |
| 20260905122704 | 30 | 239 | 4.8 | 19.3 | 0.00 | 0.00 | 0.00 | 39 | 1023.6 |
| 20260905121804 | 30 | 250 | 6.4 | 17.7 | 0.00 | 0.00 | 0.00 | 38 | 1023.5 |
| 20260905120904 | 29 | 262 | 9.7 | 17.7 | 0.00 | 0.00 | 0.00 | 40 | 1023.6 |
| 20260905120004 | 29 | 215 | 8.0 | 14.5 | 0.00 | 0.00 | 0.00 | 41 | 1023.4 |
| 20260905115404 | 30 | 231 | 6.4 | 14.5 | 0.00 | 0.00 | 0.00 | 41 | 1023.6 |
| 20260905114504 | 30 | 205 | 4.8 | 14.5 | 0.00 | 0.00 | 0.00 | 40 | 1023.4 |
| 20260905113604 | 30 | 213 | 6.4 | 16.1 | 0.00 | 0.00 | 0.00 | 41 | 1023.6 |
| 20260905112703 | 30 | 207 | 6.4 | 16.1 | 0.00 | 0.00 | 0.00 | 41 | 1023.3 |
| 20260905111803 | 30 | 224 | 4.8 | 12.9 | 0.00 | 0.00 | 0.00 | 39 | 1023.5 |
| 20260905110903 | 29 | 208 | 8.0 | 19.3 | 0.00 | 0.00 | 0.00 | 41 | 1023.5 |
| 20260905110004 | 30 | 212 | 6.4 | 19.3 | 0.00 | 0.00 | 0.00 | 40 | 1023.4 |
| 20260905105403 | 29 | 182 | 6.4 | 14.5 | 0.00 | 0.00 | 0.00 | 40 | 1023.8 |
| 20260905104504 | 30 | 198 | 6.4 | 11.3 | 0.00 | 0.00 | 0.00 | 39 | 1023.5 |
| 20260905103603 | 29 | 188 | 6.4 | 20.9 | 0.00 | 0.00 | 0.00 | 38 | 1023.5 |
| 20260905102704 | 30 | 193 | 4.8 | 16.1 | 0.00 | 0.00 | 0.00 | 35 | 1023.3 |
| 20260905101804 | 29 | 187 | 8.0 | 19.3 | 0.00 | 0.00 | 0.00 | 33 | 1023.6 |
| 20260905100903 | 29 | 205 | 6.4 | 17.7 | 0.00 | 0.00 | 0.00 | 35 | 1023.6 |
| 20260905100004 | 30 | 172 | 4.8 | 16.1 | 0.00 | 0.00 | 0.00 | 32 | 1023.8 |
| 20260905095403 | 29 | 173 | 8.0 | 19.3 | 0.00 | 0.00 | 0.00 | 33 | 1023.8 |
| 20260905094503 | 29 | 174 | 6.4 | 17.7 | 0.00 | 0.00 | 0.00 | 35 | 1023.7 |
| 20260905093603 | 29 | 173 | 9.7 | 20.9 | 0.00 | 0.00 | 0.00 | 36 | 1023.7 |